Hurricane Symbol View the latest observations near Atlantic Remnants Of Alberto.

Station GTRM4 - Superior Grand Traverse Bay, MI Image indicating link to RSS feed of recent meteorological observations for station GTRM4


Conditions at GTRM4 as of
(6:00 pm EDT)
2200 GMT on 06/20/2024:
     

Click on the graph icon in the table below to see a time series plot of the last five days of that observation.

5-day plot - Wind Direction Wind Direction (WDIR): S ( 190 deg true )
5-day plot - Wind Speed Wind Speed (WSPD): 1.0 kts
5-day plot - Wind Gust Wind Gust (GST): 5.1 kts
5-day plot - Atmospheric Pressure Atmospheric Pressure (PRES):30.37 in
5-day plot - Pressure Tendency Pressure Tendency (PTDY):-0.05 in ( Falling )
5-day plot - Air Temperature Air Temperature (ATMP): 56.3 °F
5-day plot - Wind Speed at 10 Meters Wind Speed at 10 meters (WSPD10M): 1.9 kts
5-day plot - Wind Speed at 20 Meters Wind Speed at 20 meters (WSPD20M): 1.9 kts
5-day plot -  Wind Speed, Wind Gust and Atmospheric Pressure Combined plot of Wind Speed, Gust, and Air Pressure
Previous observations
TIME
(EDT)
5-day plot - Wind Direction
WDIR
 
5-day plot - Wind Speed
WSPD
kts
5-day plot - Wind Gust
GST
kts
5-day plot - Wave Height
WVHT
ft
5-day plot - Dominant Wave Period
DPD
sec
5-day plot - Average Wave Period
APD
sec
5-day plot - Mean Wave Direction
MWD
 
5-day plot - Atmospheric Pressure
PRES
in
5-day plot - Pressure Tendency
PTDY
in
5-day plot - Air Temperature
ATMP
°F
5-day plot - Water Temperature
WTMP
°F
5-day plot - Dew Point
DEWP
°F
5-day plot - Salinity
SAL
psu
5-day plot - Visibility
VIS
nmi
5-day plot - Tide (above MLLW)
TIDE
ft
2024-06-20 05:50 pmSSE 4.1 4.1----30.37- 56.1-----
2024-06-20 05:40 pmESE 1.9 4.1----30.38- 56.8-----
2024-06-20 05:30 pmENE 2.9 4.1----30.38- 59.5-----
2024-06-20 05:20 pm NE 1.9 4.1----30.39- 58.3-----
2024-06-20 05:10 pm SE 1.0 2.9----30.38- 56.7-----
2024-06-20 05:00 pm E 1.0 1.9----30.39-0.02 57.6-----
2024-06-20 04:50 pmESE 2.9 5.1----30.40- 56.7-----
2024-06-20 04:40 pmESE 5.1 5.1----30.40- 56.3-----
2024-06-20 04:30 pm E 4.1 6.0----30.40- 56.3-----
2024-06-20 04:20 pm E 5.1 6.0----30.39- 55.8-----
2024-06-20 04:10 pm E 6.0 7.0----30.39- 55.9-----
2024-06-20 04:00 pm E 6.0 8.9----30.39-0.02 55.9-----
2024-06-20 03:50 pm E 8.9 12.0----30.39- 56.8-----
2024-06-20 03:40 pmENE 7.0 8.0----30.38- 56.8-----
2024-06-20 03:30 pm NE 2.9 4.1----30.40- 59.2-----
2024-06-20 03:20 pm E 2.9 4.1----30.41- 58.3-----
2024-06-20 03:10 pmENE 1.9 5.1----30.42- 58.6-----
2024-06-20 03:00 pmSSW 1.0 4.1----30.42-0.01 57.6-----
2024-06-20 02:50 pm S 1.0 7.0----30.41- 57.0-----
2024-06-20 02:40 pmENE 4.1 5.1----30.40- 56.7-----
2024-06-20 02:30 pm S 1.9 8.9----30.42- 57.6-----
2024-06-20 02:20 pm E 8.0 8.9----30.39- 55.9-----
2024-06-20 02:10 pm NE 1.9 2.9----30.41- 59.2-----
2024-06-20 02:00 pmENE 1.9 8.9----30.41-0.02 59.9-----
2024-06-20 01:50 pm NE 5.1 7.0----30.40- 60.4-----
2024-06-20 01:40 pmENE 1.9 4.1----30.41- 59.4-----
2024-06-20 01:30 pm E 4.1 8.0----30.41- 57.6-----
2024-06-20 01:20 pm NE 6.0 6.0----30.40- 59.0-----
2024-06-20 01:10 pm NE 2.9 4.1----30.40- 58.8-----
2024-06-20 01:00 pm- 0.0 5.1----30.41-0.02 57.0-----
2024-06-20 12:50 pm SE 4.1 5.1----30.41- 55.6-----
2024-06-20 12:40 pm SE 4.1 5.1----30.41- 55.4-----
2024-06-20 12:30 pm SE 2.9 2.9----30.41- 56.3-----
2024-06-20 12:20 pm SE 1.0 2.9----30.42- 57.4-----
2024-06-20 12:10 pmSSE 1.9 2.9----30.43- 57.2-----
2024-06-20 12:00 pmSSE 2.9 5.1----30.43+0.01 57.0-----
2024-06-20 11:50 amSSE 4.1 4.1----30.42- 56.5-----
2024-06-20 11:40 am SE 4.1 4.1----30.42- 56.1-----
2024-06-20 11:30 amSSE 2.9 4.1----30.43- 57.6-----
2024-06-20 11:20 amSSE 4.1 5.1----30.43- 56.5-----
2024-06-20 11:10 amSSE 4.1 6.0----30.43- 57.0-----
2024-06-20 11:00 am S 4.1 6.0----30.43+0.02 57.2-----
2024-06-20 10:50 amSSE 4.1 4.1----30.43- 57.4-----
2024-06-20 10:40 amSSE 4.1 4.1----30.43- 58.8-----
2024-06-20 10:30 am SE 1.9 4.1----30.43- 60.1-----
2024-06-20 10:20 am SE 4.1 4.1----30.42- 58.3-----
2024-06-20 10:10 am SE 2.9 2.9----30.43- 60.4-----
2024-06-20 10:00 am SE 2.9 2.9----30.43+0.03 60.8-----
2024-06-20 09:50 amESE 1.9 2.9----30.44- 60.8-----
2024-06-20 09:40 amESE 1.9 1.9----30.44- 61.0-----
2024-06-20 09:30 amESE 1.9 1.9----30.43- 60.6-----
2024-06-20 09:20 am- 0.0 1.0----30.43- 61.7-----
2024-06-20 09:10 am- 0.0 1.9----30.43- 62.2-----
2024-06-20 09:00 amENE 1.9 2.9----30.42+0.03 61.9-----
2024-06-20 08:50 am NE 1.9 2.9----30.42- 63.1-----
2024-06-20 08:40 am N 1.9 2.9----30.42- 60.1-----
2024-06-20 08:30 am N 1.9 5.1----30.42- 58.1-----
2024-06-20 08:20 am NW 4.1 6.0----30.43- 58.3-----
2024-06-20 08:10 am N 1.9 2.9----30.42- 55.6-----
2024-06-20 08:00 amNNW 2.9 4.1----30.41+0.05 52.3-----
2024-06-20 07:50 am NW 2.9 4.1----30.42- 52.5-----
2024-06-20 07:40 amWNW 2.9 4.1----30.42- 52.7-----
2024-06-20 07:30 am NW 1.9 2.9----30.41- 53.1-----
2024-06-20 07:20 am NW 1.9 2.9----30.41- 51.1-----
2024-06-20 07:10 amNNW 1.9 1.9----30.41- 51.6-----
2024-06-20 07:00 am- 0.0 2.9----30.40+0.04 49.6-----
2024-06-20 06:50 amWNW 1.9 2.9----30.40- 48.0-----
2024-06-20 06:40 amWNW 1.9 2.9----30.40- 46.9-----
2024-06-20 06:30 am- 0.0 1.0----30.39- 47.1-----
2024-06-20 06:20 amSSE 1.9 4.1----30.39- 48.9-----
2024-06-20 06:10 am SE 2.9 5.1----30.39- 47.8-----
2024-06-20 06:00 amWNW 2.9 4.1----30.39+0.04 47.1-----
2024-06-20 05:50 amWNW 2.9 4.1----30.38- 47.3-----
2024-06-20 05:40 amWNW 2.9 4.1----30.37- 47.7-----
2024-06-20 05:30 amWNW 2.9 2.9----30.37- 47.8-----
2024-06-20 05:20 am- 0.0 6.0----30.37- 48.7-----
2024-06-20 05:10 am NW 4.1 6.0----30.36- 47.7-----
2024-06-20 05:00 am NW 5.1 6.0----30.36+0.02 46.9-----
2024-06-20 04:50 am NW 2.9 5.1----30.36- 46.6-----
2024-06-20 04:40 amNNW 2.9 4.1----30.36- 46.9-----
2024-06-20 04:30 am NW 2.9 2.9----30.36- 47.3-----
2024-06-20 04:20 am NW 2.9 2.9----30.36- 47.1-----
2024-06-20 04:10 am NW 1.9 1.9----30.36- 48.0-----
2024-06-20 04:00 am- 0.0 1.0----30.36+0.02 48.0-----
2024-06-20 03:50 am- 0.0 0.0----30.36- 48.9-----
2024-06-20 03:40 am- 0.0 2.9----30.36- 49.5-----
2024-06-20 03:30 am- 0.0 4.1----30.36- 49.8-----
2024-06-20 03:20 am NW 1.9 6.0----30.36- 50.4-----
2024-06-20 03:10 am NW 5.1 6.0----30.35- 50.2-----
2024-06-20 03:00 am NW 2.9 4.1----30.35+0.02 49.8-----
2024-06-20 02:50 amWSW 1.9 1.9----30.35- 50.0-----
2024-06-20 02:40 amWNW 1.9 2.9----30.35- 50.9-----
2024-06-20 02:30 am- 0.0 4.1----30.34- 51.1-----
2024-06-20 02:20 am NW 4.1 7.0----30.34- 50.9-----
2024-06-20 02:10 am NW 6.0 7.0----30.34- 51.1-----
2024-06-20 02:00 am NW 5.1 8.0----30.34+0.03 51.1-----
2024-06-20 01:50 am NW 6.0 7.0----30.33- 51.3-----
2024-06-20 01:40 am NW 5.1 8.0----30.33- 51.8-----
2024-06-20 01:30 am NW 6.0 8.0----30.33- 51.6-----
2024-06-20 01:20 am NW 5.1 6.0----30.33- 51.6-----
2024-06-20 01:10 am NW 4.1 5.1----30.34- 50.2-----
2024-06-20 01:00 am NW 1.9 4.1----30.34+0.04 50.5-----
2024-06-20 12:50 am W 1.0 1.9----30.34- 51.1-----
2024-06-20 12:40 am- 0.0 1.0----30.34- 51.4-----
2024-06-20 12:30 am- 0.0 1.9----30.34- 51.4-----
2024-06-20 12:20 am W 1.9 4.1----30.33- 52.2-----
2024-06-20 12:10 am W 2.9 2.9----30.33- 52.5-----
2024-06-20 12:00 am W 1.9 2.9----30.33+0.06 53.1-----
2024-06-19 11:50 pmWNW 1.0 1.9----30.33- 52.9-----
2024-06-19 11:40 pm- 0.0 2.9----30.33- 52.9-----
2024-06-19 11:30 pmSSE 1.9 2.9----30.32- 53.8-----
2024-06-19 11:20 pm W 1.9 2.9----30.32- 53.6-----
2024-06-19 11:10 pm- 0.0 1.9----30.32- 54.5-----
2024-06-19 11:00 pm SW 1.9 1.9----30.31+0.04 54.3-----
2024-06-19 10:50 pm- 0.0 1.0----30.31- 54.7-----
2024-06-19 10:40 pm- 0.0 1.9----30.31- 55.0-----
2024-06-19 10:30 pm S 1.0 4.1----30.31- 55.8-----
2024-06-19 10:20 pmSSE 2.9 4.1----30.30- 56.1-----
2024-06-19 10:10 pm S 1.0 4.1----30.30- 58.5-----
2024-06-19 10:00 pm W 2.9 7.0----30.30+0.05 60.8-----
2024-06-19 09:50 pm W 4.1 8.0----30.29- 61.2-----
2024-06-19 09:40 pm W 6.0 8.9----30.28- 61.3-----
2024-06-19 09:30 pm W 5.1 7.0----30.29- 61.3-----
2024-06-19 09:20 pm W 4.1 6.0----30.28- 61.7-----
2024-06-19 09:10 pm W 5.1 6.0----30.28- 62.1-----
2024-06-19 09:00 pm W 2.9 5.1----30.27+0.04 62.1-----
2024-06-19 08:50 pmWSW 1.9 4.1----30.27- 62.4-----
2024-06-19 08:40 pmWSW 4.1 6.0----30.27- 63.0-----
2024-06-19 08:30 pmWSW 1.0 6.0----30.27- 63.0-----
2024-06-19 08:20 pm W 5.1 8.9----30.27- 63.5-----
2024-06-19 08:10 pm W 2.9 8.0----30.27- 63.7-----
2024-06-19 08:00 pm W 5.1 9.9----30.27+0.06 64.0-----
2024-06-19 07:50 pm W 7.0 13.0----30.26- 64.4-----
2024-06-19 07:40 pm W 8.0 13.0----30.26- 65.1-----
2024-06-19 07:30 pmWNW 8.9 13.0----30.25- 65.5-----
2024-06-19 07:20 pm W 8.0 13.0----30.25- 66.2-----
2024-06-19 07:10 pm W 8.0 13.0----30.25- 65.7-----
2024-06-19 07:00 pmWNW 5.1 11.1----30.25+0.06 67.6-----
2024-06-19 06:50 pmWNW 8.0 13.0----30.25- 67.1-----
2024-06-19 06:40 pm NW 8.9 15.0----30.25- 66.9-----
2024-06-19 06:30 pm W 8.9 13.0----30.24- 67.3-----
2024-06-19 06:20 pmWNW 9.9 15.9----30.23- 67.3-----
2024-06-19 06:10 pmWNW 8.9 15.9----30.23- 67.8-----
2024-06-19 06:00 pmWNW 9.9 15.9----30.23+0.06 68.2-----
2024-06-19 05:50 pm NW 9.9 15.9----30.23- 68.0-----